Regional Weather Roundup
Issued by NWS

Home | Current Version | Previous Version | Text Only | Print | Product List | Glossary On
Versions: 1 2 3 4 5 6 7 8 9 10 11 12 13 14 15 16 17 18 19 20 21 22 23 24 25 26 27 28 29 30 31 32 33 34 35 36 37 38 39 40 41 42 43 44 45 46 47 48 49 50
000
ASUS45 KBOU 200007
RWRCO

WEATHER ROUNDUP FOR COLORADO
NATIONAL WEATHER SERVICE DENVER/BOULDER CO
500 PM MST THU JAN 19 2017

NOTE: "FAIR" INDICATES FEW OR NO CLOUDS BELOW 12000 FEET WITH NO
SIGNIFICANT WEATHER AND/OR OBSTRUCTIONS TO VISIBILITY.

COZ001>005-013-030-031-200100-
...NORTHWEST COLORADO...

CITY           SKY/WX    TMP DP  RH WIND       PRES   REMARKS
CRAIG          CLOUDY    28  20  71 CALM      29.71F
HAYDEN         CLOUDY    28  16  59 S3        29.70S
MEEKER         LGT SNOW  32  29  88 NE6       29.71S FOG     WCI  26
MOUNT WERNER   NOT AVBL
STEAMBOAT SPGS CLOUDY    25  16  69 CALM      29.70S
WALDEN           N/A     23  14  68 SE3       29.68S
$$

COZ006>008-011-200100-
...WEST CENTRAL VALLEYS...

CITY           SKY/WX    TMP DP  RH WIND       PRES   REMARKS
GRAND JUNCTION CLOUDY    32  32 100 CALM      29.75S FOG
MONTROSE       CLOUDY    38  26  62 NE5       29.76R
EAGLE          CLOUDY    30  19  64 CALM      29.73S
RIFLE          LGT SNOW  34  28  79 SE6       29.74R WCI  29
DELTA          CLOUDY    40  30  66 CALM      29.76R
NUCLA          CLOUDY    32  32 100 E5        29.79F WCI  27
$$

COZ017>023-064>068-200100-
...SOUTHWEST COLORADO...

CITY           SKY/WX    TMP DP  RH WIND       PRES   REMARKS
DURANGO        LGT SNOW  32  27  81 CALM      29.79S
CORTEZ         LGT SNOW  33  33 100 SW3       29.79F FOG
PAGOSA SPRINGS LGT SNOW  31  30  94 SW5       29.80R WCI  27
TELLURIDE      NOT AVBL
WOLF CREEK PAS CLOUDY    14  14 100 SW18G24   29.79S WCI  -3
$$

COZ009-010-012-014-032>034-037-058>063-200100-
...CENTRAL COLORADO...

CITY           SKY/WX    TMP DP  RH WIND       PRES   REMARKS
ASPEN          CLOUDY    32  19  58 CALM      29.68S
BUENA VISTA    FAIR      22  14  70 CALM      29.66R
COPPER MTN     FAIR      23  14  68 MISG      29.72R
BERTHOUD PASS  NOT AVBL
COTTONWOOD PAS FAIR      34  14  44 NW3       29.67S
GUNNISON       CLOUDY    13   8  81 NE5       29.78F WCI   5
KREMMLING      MOCLDY    19  12  73 CALM      29.74F
LEADVILLE      FAIR      25  12  58 N12       29.65R WCI  14
MONARCH PASS   MOCLDY    16  10  79 SW7       29.81S WCI   6
SALIDA         MOCLDY    33  19  56 SW21G28   29.71S WCI  21
SUNLIGHT       LGT SNOW  19  18  93 SW8       29.75S VSB 3/4 WCI   9
WILKERSON PASS FAIR      28  12  50 SW10      29.71S WCI  19
$$

COZ069>075-200100-
...SAN LUIS VALLEY/SANGRE DE CRISTO MOUNTAINS...

CITY           SKY/WX    TMP DP  RH WIND       PRES   REMARKS
ALAMOSA        CLOUDY    21  18  88 NW8       29.73F WCI  11
LA VETA PASS   FAIR      21  18  86 NE28      29.67R WCI   3
SAGUACHE       CLOUDY    21  19  93 CALM      29.76S
$$

COZ035-036-038>040-200100-
...NORTHERN COLORADO FRONT RANGE...

CITY           SKY/WX    TMP DP  RH WIND       PRES   REMARKS
DENVER INTL AP FAIR      40  24  53 E12       29.50F
DMNS CITY PARK   N/A     48  16  28 NE3G12    29.51S
AURORA         PTCLDY    41  23  49 SE8       29.52R
FRONT RANGE AP NOT AVBL
ERIE MUNI ARPT FAIR      44  23  43 NW3       29.52R
BOULDER MUN AP FAIR      50  21  32 CALM      29.52R
CENTENNIAL     FAIR      47  18  31 E8        29.52R
BROOMFIELD     PTCLDY    48  19  32 E5        29.53R
FORT COLLINS   FAIR      46  21  36 E5        29.52R
LONGMONT       FAIR      50  22  33 CALM      29.53S
$$

COZ041-046-047-076>085-087-088-200100-
...PIKES PEAK/PALMER DIVIDE AND SOUTHERN FOOTHILLS...

CITY           SKY/WX    TMP DP  RH WIND       PRES   REMARKS
COLO. SPRINGS  FAIR      44  15  31 S9        29.55R
A. F. ACADEMY  FAIR      44  11  25 S7        29.54R
SCHRIEVER AFB  NOT AVBL
ELLICOTT       FAIR     N/A N/A N/A VRB3      29.54R
FALCON         FAIR      39  12  32 S3        29.57R
FORT CARSON    NOT AVBL
LIMON          FAIR      37  19  48 CALM      29.52S
MONUMENT HILL  FAIR      41  18  38 S9        29.57R
TRINIDAD       FAIR      35  24  64 W6        29.55R WCI  30
$$

COZ042>045-048>051-090-091-200100-
...NORTHEAST COLORADO...

CITY           SKY/WX    TMP DP  RH WIND       PRES   REMARKS
GREELEY ARPT   FAIR      42  27  55 N3        29.52S
AKRON          FAIR      41  24  51 S3        29.51S
BURLINGTON     FAIR      40  29  64 E5        29.53R
WRAY           FAIR      39  30  70 SE3       29.53R
STERLING       FAIR      39  28  65 W6        29.50R
HOLYOKE        FAIR      37  30  75 SE6       29.52S
FORT MORGAN    NOT AVBL
$$

COZ086-089-092>099-200100-
...SOUTHEAST COLORADO...

CITY           SKY/WX    TMP DP  RH WIND       PRES   REMARKS
PUEBLO         FAIR      45  27  49 NE8       29.50R
LA JUNTA       FAIR      43  28  55 CALM      29.51S
LAMAR          FAIR      39  25  57 MISG      29.50S
SPRINGFIELD      N/A     42  22  44 SE3       29.54R
$$



USA.gov is the U.S. government's official web portal to all federal, state and local government web resources and services.